Time,TemperatureF,DewpointF,PressureIn,WindDirection,WindDirectionDegrees,WindSpeedMPH,WindSpeedGustMPH,Humidity,HourlyPrecipIn,Conditions,Clouds,dailyrainin,SoftwareType,DateUTC
2013-04-02 00:00:00,32.9,16.8,29.97,West,278,6.4,10.5,51,0.00,,FEW060,0.00,VWS V14.00,2013-04-02 04:00:00,
2013-04-02 00:05:00,32.7,16.6,29.97,WNW,287,6.4,10.5,51,0.00,,OVC060,0.00,VWS V14.00,2013-04-02 04:05:00,
2013-04-02 00:10:00,32.7,17.0,29.97,WSW,250,3.4,6.4,52,0.00,,OVC060,0.00,VWS V14.00,2013-04-02 04:10:00,
2013-04-02 00:15:00,32.7,17.0,29.97,WSW,239,6.9,7.5,52,0.00,,OVC060,0.00,VWS V14.00,2013-04-02 04:15:00,
2013-04-02 00:20:00,32.5,16.9,29.97,WSW,237,9.6,12.1,52,0.00,,OVC060,0.00,VWS V14.00,2013-04-02 04:20:00,
2013-04-02 00:25:00,32.5,16.4,29.97,WNW,298,5.4,6.4,51,0.00,,OVC060,0.00,VWS V14.00,2013-04-02 04:25:00,
2013-04-02 00:30:00,32.2,16.5,29.97,WNW,284,3.4,3.8,52,0.00,,OVC060,0.00,VWS V14.00,2013-04-02 04:30:00,
2013-04-02 00:36:00,31.8,16.2,29.97,NW,307,4.4,5.9,52,0.00,,OVC060,0.00,VWS V14.00,2013-04-02 04:36:00,
2013-04-02 00:41:00,32.2,16.1,29.97,NW,311,8.9,9.7,51,0.00,,OVC060,0.00,VWS V14.00,2013-04-02 04:41:00,
2013-04-02 00:46:00,32.2,16.1,29.97,NW,304,11.1,12.1,51,0.00,,OVC060,0.00,VWS V14.00,2013-04-02 04:46:00,
2013-04-02 00:51:00,32.2,15.6,29.97,WNW,297,4.4,7.0,50,0.00,,OVC060,0.00,VWS V14.00,2013-04-02 04:51:00,
2013-04-02 00:56:00,31.4,15.4,29.97,West,281,3.9,6.4,51,0.00,,OVC060,0.00,VWS V14.00,2013-04-02 04:56:00,
2013-04-02 01:01:00,32.2,15.6,29.97,NW,313,9.1,11.5,50,0.00,,OVC060,0.00,VWS V14.00,2013-04-02 05:01:00,
2013-04-02 01:06:00,32.2,15.6,29.97,WNW,301,5.9,6.4,50,0.00,,OVC060,0.00,VWS V14.00,2013-04-02 05:06:00,
2013-04-02 01:11:00,32.2,15.1,29.97,NW,322,9.6,10.5,49,0.00,,OVC060,0.00,VWS V14.00,2013-04-02 05:11:00,
2013-04-02 01:16:00,32.0,15.4,29.97,WNW,291,6.4,7.5,50,0.00,,OVC060,0.00,VWS V14.00,2013-04-02 05:16:00,
2013-04-02 01:21:00,31.4,14.9,29.97,West,276,6.9,9.7,50,0.00,,OVC060,0.00,VWS V14.00,2013-04-02 05:21:00,
2013-04-02 01:26:00,31.4,14.9,29.97,SSW,210,3.9,6.4,50,0.00,,OVC060,0.00,VWS V14.00,2013-04-02 05:26:00,
2013-04-02 01:32:00,31.8,14.8,29.97,NW,326,6.9,10.5,49,0.00,,OVC060,0.00,VWS V14.00,2013-04-02 05:32:00,
2013-04-02 01:37:00,31.4,14.9,29.97,NW,323,6.4,9.1,50,0.00,,OVC060,0.00,VWS V14.00,2013-04-02 05:37:00,
2013-04-02 01:42:00,31.8,14.8,29.97,West,277,4.4,5.9,49,0.00,,OVC060,0.00,VWS V14.00,2013-04-02 05:42:00,
2013-04-02 01:47:00,31.2,14.8,29.97,West,280,2.5,3.2,50,0.00,,OVC060,0.00,VWS V14.00,2013-04-02 05:47:00,
2013-04-02 01:52:00,31.0,14.6,29.97,NW,310,7.4,8.1,50,0.00,,OVC060,0.00,VWS V14.00,2013-04-02 05:52:00,
2013-04-02 01:57:00,31.0,14.6,29.97,WNW,302,3.4,7.5,50,0.00,,OVC060,0.00,VWS V14.00,2013-04-02 05:57:00,
2013-04-02 02:02:00,30.5,14.1,29.97,North,353,6.9,9.7,50,0.00,,OVC060,0.00,VWS V14.00,2013-04-02 06:02:00,
2013-04-02 02:07:00,31.4,14.9,29.97,WNW,295,6.9,9.1,50,0.00,,CLR,0.00,VWS V14.00,2013-04-02 06:07:00,
2013-04-02 02:12:00,31.0,14.6,29.97,NW,305,3.4,4.8,50,0.00,,CLR,0.00,VWS V14.00,2013-04-02 06:12:00,
2013-04-02 02:17:00,31.0,14.6,29.97,West,274,5.9,9.7,50,0.00,,CLR,0.00,VWS V14.00,2013-04-02 06:17:00,
2013-04-02 02:22:00,31.0,14.6,29.97,West,259,3.9,7.0,50,0.00,,CLR,0.00,VWS V14.00,2013-04-02 06:22:00,
2013-04-02 02:27:00,30.9,14.4,29.97,WSW,249,6.9,7.5,50,0.00,,CLR,0.00,VWS V14.00,2013-04-02 06:27:00,
2013-04-02 02:32:00,30.9,14.9,29.97,West,276,3.0,4.8,51,0.00,,CLR,0.00,VWS V14.00,2013-04-02 06:32:00,
2013-04-02 02:37:00,30.7,14.7,29.97,West,273,5.4,6.4,51,0.00,,CLR,0.00,VWS V14.00,2013-04-02 06:37:00,
2013-04-02 02:42:00,30.5,14.5,29.97,SSW,207,3.4,7.0,51,0.00,,CLR,0.00,VWS V14.00,2013-04-02 06:42:00,
2013-04-02 02:47:00,30.7,14.7,29.97,West,264,3.9,4.8,51,0.00,,CLR,0.00,VWS V14.00,2013-04-02 06:47:00,
2013-04-02 02:53:00,30.5,14.5,29.97,WNW,291,6.9,7.5,51,0.00,,CLR,0.00,VWS V14.00,2013-04-02 06:53:00,
2013-04-02 02:58:00,30.1,14.6,29.97,West,272,5.4,5.9,52,0.00,,CLR,0.00,VWS V14.00,2013-04-02 06:58:00,
2013-04-02 03:03:00,30.1,14.6,29.97,West,264,4.4,7.0,52,0.00,,OVC050,0.00,VWS V14.00,2013-04-02 07:03:00,
2013-04-02 03:08:00,30.3,14.8,29.97,WSW,256,3.0,3.2,52,0.00,,OVC050,0.00,VWS V14.00,2013-04-02 07:08:00,
2013-04-02 03:13:00,30.1,14.6,29.97,WSW,245,5.4,5.9,52,0.00,,OVC050,0.00,VWS V14.00,2013-04-02 07:13:00,
2013-04-02 03:18:00,29.9,14.9,29.97,WNW,283,2.5,2.7,53,0.00,,OVC050,0.00,VWS V14.00,2013-04-02 07:18:00,
2013-04-02 03:23:00,30.1,15.1,29.97,West,263,6.9,7.5,53,0.00,,OVC050,0.00,VWS V14.00,2013-04-02 07:23:00,
2013-04-02 03:28:00,30.3,14.8,29.97,West,271,3.9,4.3,52,0.00,,OVC050,0.00,VWS V14.00,2013-04-02 07:28:00,
2013-04-02 03:33:00,30.5,15.0,29.97,WSW,239,4.4,7.5,52,0.00,,OVC050,0.00,VWS V14.00,2013-04-02 07:33:00,
2013-04-02 03:38:00,30.3,14.8,29.97,WNW,290,3.4,3.8,52,0.00,,OVC050,0.00,VWS V14.00,2013-04-02 07:38:00,
2013-04-02 03:43:00,30.3,14.8,29.97,NNW,348,3.0,4.8,52,0.00,,OVC050,0.00,VWS V14.00,2013-04-02 07:43:00,
2013-04-02 03:48:00,30.3,14.8,29.97,WSW,238,0.0,3.2,52,0.00,,OVC050,0.00,VWS V14.00,2013-04-02 07:48:00,
2013-04-02 03:53:00,30.3,14.8,29.97,West,269,5.4,5.9,52,0.00,,OVC050,0.00,VWS V14.00,2013-04-02 07:53:00,
2013-04-02 03:59:00,30.5,15.0,29.97,SSW,207,3.9,4.8,52,0.00,,OVC050,0.00,VWS V14.00,2013-04-02 07:59:00,
2013-04-02 04:04:00,30.5,14.5,29.97,West,273,3.0,4.3,51,0.00,,OVC050,0.00,VWS V14.00,2013-04-02 08:04:00,
2013-04-02 04:09:00,30.5,15.0,29.97,West,265,3.0,3.2,52,0.00,,OVC050,0.00,VWS V14.00,2013-04-02 08:09:00,
2013-04-02 04:14:00,30.3,14.8,29.97,West,270,5.9,6.4,52,0.00,,OVC050,0.00,VWS V14.00,2013-04-02 08:14:00,
2013-04-02 04:19:00,30.3,14.8,29.97,West,265,5.9,6.4,52,0.00,,OVC050,0.00,VWS V14.00,2013-04-02 08:19:00,
2013-04-02 04:24:00,30.3,14.8,29.97,West,270,5.4,5.9,52,0.00,,OVC050,0.00,VWS V14.00,2013-04-02 08:24:00,
2013-04-02 04:29:00,30.3,14.8,29.97,West,277,3.9,4.8,52,0.00,,OVC050,0.00,VWS V14.00,2013-04-02 08:29:00,
2013-04-02 04:34:00,30.3,14.4,29.97,WSW,248,3.0,3.2,51,0.00,,OVC050,0.00,VWS V14.00,2013-04-02 08:34:00,
2013-04-02 04:39:00,30.1,14.6,29.97,WNW,284,3.0,4.3,52,0.00,,OVC050,0.00,VWS V14.00,2013-04-02 08:39:00,
2013-04-02 04:45:00,30.3,14.4,29.97,West,274,7.9,8.6,51,0.00,,OVC050,0.00,VWS V14.00,2013-04-02 08:45:00,
2013-04-02 04:50:00,30.3,14.4,29.97,West,275,9.1,9.9,51,0.00,,OVC050,0.00,VWS V14.00,2013-04-02 08:50:00,
2013-04-02 04:55:00,30.1,15.1,29.97,West,269,4.4,5.9,53,0.00,,OVC050,0.00,VWS V14.00,2013-04-02 08:55:00,
2013-04-02 05:00:00,30.1,14.6,29.97,WNW,285,6.4,8.6,52,0.00,,OVC050,0.00,VWS V14.00,2013-04-02 09:00:00,
2013-04-02 05:05:00,30.1,14.6,29.97,SSW,192,3.4,5.4,52,0.00,,OVC050,0.00,VWS V14.00,2013-04-02 09:05:00,
2013-04-02 05:10:00,30.1,14.2,29.97,NW,304,13.5,14.8,51,0.00,,OVC050,0.00,VWS V14.00,2013-04-02 09:10:00,
2013-04-02 05:15:00,30.1,13.7,29.97,WNW,292,6.4,7.0,50,0.00,,OVC050,0.00,VWS V14.00,2013-04-02 09:15:00,
2013-04-02 05:20:00,29.9,14.0,29.97,WNW,299,8.9,10.5,51,0.00,,OVC050,0.00,VWS V14.00,2013-04-02 09:20:00,
2013-04-02 05:25:00,29.7,13.8,29.97,West,277,5.4,5.9,51,0.00,,OVC050,0.00,VWS V14.00,2013-04-02 09:25:00,
2013-04-02 05:30:00,29.7,13.8,29.97,WSW,240,3.9,9.7,51,0.00,,OVC050,0.00,VWS V14.00,2013-04-02 09:30:00,
2013-04-02 05:35:00,29.5,14.1,30.00,WNW,283,8.4,9.1,52,0.00,,OVC050,0.00,VWS V14.00,2013-04-02 09:35:00,
2013-04-02 05:40:00,29.9,14.0,30.00,WSW,239,3.4,4.3,51,0.00,,OVC050,0.00,VWS V14.00,2013-04-02 09:40:00,
2013-04-02 05:45:00,30.1,14.2,30.00,West,277,5.9,7.5,51,0.00,,OVC050,0.00,VWS V14.00,2013-04-02 09:45:00,
2013-04-02 05:50:00,29.9,13.6,30.00,NW,306,6.4,7.5,50,0.00,,OVC050,0.00,VWS V14.00,2013-04-02 09:50:00,
2013-04-02 05:55:00,29.7,13.4,30.00,NW,305,6.4,13.2,50,0.00,,OVC050,0.00,VWS V14.00,2013-04-02 09:55:00,
2013-04-02 06:00:00,29.7,13.8,30.00,West,273,8.9,9.9,51,0.00,,OVC050,0.00,VWS V14.00,2013-04-02 10:00:00,
2013-04-02 06:05:00,29.5,13.2,30.00,NNW,327,6.4,7.0,50,0.00,,OVC048,0.00,VWS V14.00,2013-04-02 10:05:00,
2013-04-02 06:11:00,29.7,12.9,30.00,NNW,339,6.4,7.0,49,0.00,,OVC048,0.00,VWS V14.00,2013-04-02 10:11:00,
2013-04-02 06:16:00,29.4,13.0,30.00,NW,324,3.9,5.9,50,0.00,,OVC048,0.00,VWS V14.00,2013-04-02 10:16:00,
2013-04-02 06:21:00,29.2,12.4,30.00,NW,316,8.4,9.1,49,0.00,,OVC048,0.00,VWS V14.00,2013-04-02 10:21:00,
2013-04-02 06:26:00,28.8,13.0,30.00,West,281,6.9,9.9,51,0.00,,OVC048,0.00,VWS V14.00,2013-04-02 10:26:00,
2013-04-02 06:31:00,28.8,12.5,30.00,NW,311,9.6,13.2,50,0.00,,OVC048,0.00,VWS V14.00,2013-04-02 10:31:00,
2013-04-02 06:36:00,28.4,12.6,30.00,NW,315,9.1,12.1,51,0.00,,OVC048,0.00,VWS V14.00,2013-04-02 10:36:00,
2013-04-02 06:41:00,28.4,12.2,30.00,NW,315,5.4,7.5,50,0.00,,OVC048,0.00,VWS V14.00,2013-04-02 10:41:00,
2013-04-02 06:47:00,28.1,12.3,30.03,NNW,344,5.9,6.4,51,0.00,,OVC048,0.00,VWS V14.00,2013-04-02 10:47:00,
2013-04-02 06:52:00,28.1,12.3,30.03,NNW,338,6.9,9.1,51,0.00,,OVC048,0.00,VWS V14.00,2013-04-02 10:52:00,
2013-04-02 06:57:00,28.2,12.5,30.03,NW,312,5.4,7.0,51,0.00,,OVC048,0.00,VWS V14.00,2013-04-02 10:57:00,
2013-04-02 07:02:00,28.1,12.3,30.03,NNW,338,6.4,9.1,51,0.00,,OVC048,0.00,VWS V14.00,2013-04-02 11:02:00,
2013-04-02 07:07:00,28.1,12.3,30.03,NW,317,8.9,9.7,51,0.00,,OVC048,0.00,VWS V14.00,2013-04-02 11:07:00,
2013-04-02 07:12:00,27.7,12.4,30.03,NW,307,9.6,11.0,52,0.00,,OVC048,0.00,VWS V14.00,2013-04-02 11:12:00,
2013-04-02 07:17:00,27.7,12.4,30.03,WNW,299,9.6,14.8,52,0.00,,OVC048,0.00,VWS V14.00,2013-04-02 11:17:00,
2013-04-02 07:22:00,27.5,12.2,30.03,NNW,329,11.6,12.6,52,0.00,,OVC048,0.00,VWS V14.00,2013-04-02 11:22:00,
2013-04-02 07:27:00,27.3,11.6,30.03,NNW,333,12.1,15.3,51,0.00,,OVC048,0.00,VWS V14.00,2013-04-02 11:27:00,
2013-04-02 07:32:00,27.3,11.6,30.06,NW,313,11.6,12.6,51,0.00,,OVC048,0.00,VWS V14.00,2013-04-02 11:32:00,
2013-04-02 07:37:00,27.0,11.7,30.06,WNW,298,8.9,10.5,52,0.00,,OVC048,0.00,VWS V14.00,2013-04-02 11:37:00,
2013-04-02 07:42:00,27.1,10.5,30.06,NW,309,8.4,12.6,49,0.00,,OVC048,0.00,VWS V14.00,2013-04-02 11:42:00,
2013-04-02 07:47:00,27.0,10.8,30.06,NW,319,14.5,18.5,50,0.00,,OVC048,0.00,VWS V14.00,2013-04-02 11:47:00,
2013-04-02 07:52:00,27.0,9.9,30.06,WNW,299,5.9,9.7,48,0.00,,OVC048,0.00,VWS V14.00,2013-04-02 11:52:00,
2013-04-02 07:57:00,27.0,9.9,30.06,NW,308,8.9,10.5,48,0.00,,OVC048,0.00,VWS V14.00,2013-04-02 11:57:00,
2013-04-02 08:02:00,27.0,9.9,30.06,West,269,8.9,9.7,48,0.00,,OVC048,0.00,VWS V14.00,2013-04-02 12:02:00,
2013-04-02 08:07:00,27.0,10.4,30.06,West,263,8.4,9.1,49,0.00,,FEW048,0.00,VWS V14.00,2013-04-02 12:07:00,
2013-04-02 08:12:00,27.1,10.5,30.06,WNW,287,9.6,10.5,49,0.00,,FEW048,0.00,VWS V14.00,2013-04-02 12:12:00,
2013-04-02 08:17:00,27.1,10.5,30.06,WSW,254,6.9,9.9,49,0.00,,FEW048,0.00,VWS V14.00,2013-04-02 12:17:00,
2013-04-02 08:22:00,27.3,10.2,30.06,West,273,14.0,15.3,48,0.00,,FEW048,0.00,VWS V14.00,2013-04-02 12:22:00,
2013-04-02 08:28:00,27.3,9.8,30.06,WNW,286,13.0,14.2,47,0.00,,FEW048,0.00,VWS V14.00,2013-04-02 12:28:00,
2013-04-02 08:33:00,27.3,10.2,30.06,WNW,287,9.6,15.3,48,0.00,,FEW048,0.00,VWS V14.00,2013-04-02 12:33:00,
2013-04-02 08:38:00,27.3,9.8,30.06,WNW,301,14.5,15.8,47,0.00,,FEW048,0.00,VWS V14.00,2013-04-02 12:38:00,
2013-04-02 08:43:00,27.5,9.9,30.06,NW,314,13.5,15.8,47,0.00,,FEW048,0.00,VWS V14.00,2013-04-02 12:43:00,
2013-04-02 08:48:00,27.7,9.6,30.09,NW,321,11.1,15.8,46,0.00,,FEW048,0.00,VWS V14.00,2013-04-02 12:48:00,
2013-04-02 08:53:00,27.9,9.8,30.09,North,353,4.4,13.2,46,0.00,,FEW048,0.00,VWS V14.00,2013-04-02 12:53:00,
2013-04-02 08:58:00,28.1,10.4,30.09,WNW,296,11.1,15.3,47,0.00,,FEW048,0.00,VWS V14.00,2013-04-02 12:58:00,
2013-04-02 09:03:00,28.1,10.0,30.06,NW,313,8.4,9.9,46,0.00,,CLR,0.00,VWS V14.00,2013-04-02 13:03:00,
2013-04-02 09:08:00,28.4,10.3,30.06,NW,315,15.0,16.4,46,0.00,,CLR,0.00,VWS V14.00,2013-04-02 13:08:00,
2013-04-02 09:13:00,28.4,10.3,30.06,WNW,302,11.6,14.8,46,0.00,,CLR,0.00,VWS V14.00,2013-04-02 13:13:00,
2013-04-02 09:18:00,29.0,10.8,30.09,NW,317,11.1,14.2,46,0.00,,CLR,0.00,VWS V14.00,2013-04-02 13:18:00,
2013-04-02 09:23:00,29.0,10.8,30.09,NW,324,16.5,18.0,46,0.00,,CLR,0.00,VWS V14.00,2013-04-02 13:23:00,
2013-04-02 09:28:00,29.4,11.2,30.09,NNW,333,11.1,18.5,46,0.00,,CLR,0.00,VWS V14.00,2013-04-02 13:28:00,
2013-04-02 09:33:00,29.4,10.7,30.09,NW,322,8.4,13.2,45,0.00,,CLR,0.00,VWS V14.00,2013-04-02 13:33:00,
2013-04-02 09:38:00,29.4,10.7,30.09,NW,310,8.4,9.1,45,0.00,,CLR,0.00,VWS V14.00,2013-04-02 13:38:00,
2013-04-02 09:43:00,29.9,11.2,30.09,NNW,336,9.6,12.6,45,0.00,,CLR,0.00,VWS V14.00,2013-04-02 13:43:00,
2013-04-02 09:48:00,30.3,11.5,30.09,NNW,330,6.9,9.7,45,0.00,,CLR,0.00,VWS V14.00,2013-04-02 13:48:00,
2013-04-02 09:53:00,30.1,10.8,30.09,NW,326,6.9,7.5,44,0.00,,CLR,0.00,VWS V14.00,2013-04-02 13:53:00,
2013-04-02 09:58:00,30.7,11.4,30.09,WNW,303,5.9,7.0,44,0.00,,CLR,0.00,VWS V14.00,2013-04-02 13:58:00,
2013-04-02 10:03:00,31.0,12.2,30.09,West,265,11.6,12.6,45,0.00,,CLR,0.00,VWS V14.00,2013-04-02 14:03:00,
2013-04-02 10:08:00,31.2,12.4,30.09,West,270,12.1,17.4,45,0.00,,CLR,0.00,VWS V14.00,2013-04-02 14:08:00,
2013-04-02 10:13:00,31.2,12.4,30.09,West,281,11.1,12.1,45,0.00,,CLR,0.00,VWS V14.00,2013-04-02 14:13:00,
2013-04-02 10:19:00,32.0,13.0,30.09,NW,323,15.0,22.0,45,0.00,,CLR,0.00,VWS V14.00,2013-04-02 14:19:00,
2013-04-02 10:24:00,32.3,13.4,30.09,NW,326,12.1,16.4,45,0.00,,CLR,0.00,VWS V14.00,2013-04-02 14:24:00,
2013-04-02 10:29:00,32.0,12.5,30.09,NNW,338,13.0,16.4,44,0.00,,CLR,0.00,VWS V14.00,2013-04-02 14:29:00,
2013-04-02 10:34:00,32.5,13.6,30.09,NW,318,9.1,14.8,45,0.00,,CLR,0.00,VWS V14.00,2013-04-02 14:34:00,
2013-04-02 10:39:00,32.5,13.0,30.09,NW,324,9.1,15.3,44,0.00,,CLR,0.00,VWS V14.00,2013-04-02 14:39:00,
2013-04-02 10:44:00,33.3,14.2,30.09,NW,312,14.0,15.8,45,0.00,,CLR,0.00,VWS V14.00,2013-04-02 14:44:00,
2013-04-02 10:49:00,33.3,13.7,30.09,NNW,334,11.1,12.1,44,0.00,,CLR,0.00,VWS V14.00,2013-04-02 14:49:00,
2013-04-02 10:54:00,33.3,13.2,30.09,NNW,338,9.1,9.9,43,0.00,,CLR,0.00,VWS V14.00,2013-04-02 14:54:00,
2013-04-02 10:59:00,33.4,13.9,30.09,West,265,7.9,12.6,44,0.00,,CLR,0.00,VWS V14.00,2013-04-02 14:59:00,
2013-04-02 11:04:00,34.6,14.9,30.09,WNW,297,9.6,12.1,44,0.00,,CLR,0.00,VWS V14.00,2013-04-02 15:04:00,
2013-04-02 11:09:00,34.6,14.4,30.09,WNW,303,6.9,7.5,43,0.00,,CLR,0.00,VWS V14.00,2013-04-02 15:09:00,
2013-04-02 11:14:00,35.5,15.2,30.09,SW,231,6.4,10.5,43,0.00,,CLR,0.00,VWS V14.00,2013-04-02 15:14:00,
2013-04-02 11:19:00,35.1,14.3,30.09,WSW,256,3.9,6.4,42,0.00,,CLR,0.00,VWS V14.00,2013-04-02 15:19:00,
2013-04-02 11:24:00,36.2,15.9,30.09,WSW,244,12.1,13.2,43,0.00,,CLR,0.00,VWS V14.00,2013-04-02 15:24:00,
2013-04-02 11:29:00,36.0,15.2,30.09,West,271,12.1,15.3,42,0.00,,CLR,0.00,VWS V14.00,2013-04-02 15:29:00,
2013-04-02 11:35:00,36.4,15.5,30.09,WSW,250,14.5,15.8,42,0.00,,CLR,0.00,VWS V14.00,2013-04-02 15:35:00,
2013-04-02 11:40:00,36.4,15.0,30.09,SW,223,14.5,15.8,41,0.00,,CLR,0.00,VWS V14.00,2013-04-02 15:40:00,
2013-04-02 11:45:00,36.2,14.8,30.09,SW,229,9.6,12.6,41,0.00,,CLR,0.00,VWS V14.00,2013-04-02 15:45:00,
2013-04-02 11:50:00,36.8,15.3,30.09,WSW,247,9.6,15.3,41,0.00,,CLR,0.00,VWS V14.00,2013-04-02 15:50:00,
2013-04-02 11:55:00,37.0,15.5,30.09,WSW,248,11.6,15.8,41,0.00,,CLR,0.00,VWS V14.00,2013-04-02 15:55:00,
2013-04-02 12:00:00,37.0,15.5,30.09,WSW,255,11.1,12.1,41,0.00,,CLR,0.00,VWS V14.00,2013-04-02 16:00:00,
2013-04-02 12:05:00,37.7,16.1,30.09,WNW,293,13.5,19.6,41,0.00,,CLR,0.00,VWS V14.00,2013-04-02 16:05:00,
2013-04-02 12:10:00,37.5,15.4,30.09,WSW,244,11.6,15.8,40,0.00,,CLR,0.00,VWS V14.00,2013-04-02 16:10:00,
2013-04-02 12:15:00,38.1,15.9,30.09,West,280,6.4,10.5,40,0.00,,CLR,0.00,VWS V14.00,2013-04-02 16:15:00,
2013-04-02 12:20:00,38.5,16.2,30.09,West,272,11.6,14.8,40,0.00,,CLR,0.00,VWS V14.00,2013-04-02 16:20:00,
2013-04-02 12:25:00,38.6,16.4,30.09,West,273,11.6,15.8,40,0.00,,CLR,0.00,VWS V14.00,2013-04-02 16:25:00,
2013-04-02 12:30:00,38.3,16.1,30.09,SW,232,11.1,18.0,40,0.00,,CLR,0.00,VWS V14.00,2013-04-02 16:30:00,
2013-04-02 12:36:00,39.0,16.8,30.09,West,277,10.6,15.8,40,0.00,,CLR,0.00,VWS V14.00,2013-04-02 16:36:00,
2013-04-02 12:41:00,38.6,16.4,30.09,West,263,8.9,9.7,40,0.00,,CLR,0.00,VWS V14.00,2013-04-02 16:41:00,
2013-04-02 12:47:00,38.8,16.0,30.09,West,259,9.1,15.8,39,0.00,,CLR,0.00,VWS V14.00,2013-04-02 16:47:00,
2013-04-02 12:52:00,39.0,16.2,30.09,West,267,13.5,16.4,39,0.00,,CLR,0.00,VWS V14.00,2013-04-02 16:52:00,
2013-04-02 12:57:00,39.4,16.5,30.09,WSW,239,11.1,18.0,39,0.00,,CLR,0.00,VWS V14.00,2013-04-02 16:57:00,
2013-04-02 13:02:00,39.9,17.0,30.09,West,260,8.9,16.9,39,0.00,,CLR,0.00,VWS V14.00,2013-04-02 17:02:00,
2013-04-02 13:07:00,40.1,17.2,30.09,West,262,12.1,15.8,39,0.00,,CLR,0.00,VWS V14.00,2013-04-02 17:07:00,
2013-04-02 13:12:00,40.7,17.7,30.09,West,264,14.5,20.9,39,0.00,,CLR,0.00,VWS V14.00,2013-04-02 17:12:00,
2013-04-02 13:17:00,40.7,17.7,30.06,WSW,242,12.1,13.2,39,0.00,,CLR,0.00,VWS V14.00,2013-04-02 17:17:00,
2013-04-02 13:22:00,40.3,17.3,30.06,WSW,256,14.5,18.0,39,0.00,,CLR,0.00,VWS V14.00,2013-04-02 17:22:00,
2013-04-02 13:27:00,40.7,17.1,30.06,WSW,255,9.1,13.2,38,0.00,,CLR,0.00,VWS V14.00,2013-04-02 17:27:00,
2013-04-02 13:32:00,40.7,15.2,30.06,WSW,256,12.1,14.8,35,0.00,,CLR,0.00,VWS V14.00,2013-04-02 17:32:00,
2013-04-02 13:37:00,41.4,17.1,30.06,West,275,14.5,15.8,37,0.00,,CLR,0.00,VWS V14.00,2013-04-02 17:37:00,
2013-04-02 13:42:00,41.4,17.7,30.06,WSW,253,9.6,15.3,38,0.00,,CLR,0.00,VWS V14.00,2013-04-02 17:42:00,
2013-04-02 13:47:00,41.2,16.9,30.06,NW,319,14.0,15.8,37,0.00,,CLR,0.00,VWS V14.00,2013-04-02 17:47:00,
2013-04-02 13:53:00,40.9,17.2,30.06,WSW,255,8.9,14.8,38,0.00,,CLR,0.00,VWS V14.00,2013-04-02 17:53:00,
2013-04-02 13:58:00,42.0,18.2,30.06,West,263,9.1,12.6,38,0.00,,CLR,0.00,VWS V14.00,2013-04-02 17:58:00,
2013-04-02 14:03:00,41.6,16.0,30.06,WSW,245,8.4,15.8,35,0.00,,CLR,0.00,VWS V14.00,2013-04-02 18:03:00,
2013-04-02 14:08:00,42.2,18.4,30.06,SW,233,6.9,9.9,38,0.00,,CLR,0.00,VWS V14.00,2013-04-02 18:08:00,
2013-04-02 14:13:00,42.9,19.1,30.06,WSW,242,14.0,16.9,38,0.00,,CLR,0.00,VWS V14.00,2013-04-02 18:13:00,
2013-04-02 14:18:00,42.7,18.9,30.06,WNW,291,18.7,20.4,38,0.00,,CLR,0.00,VWS V14.00,2013-04-02 18:18:00,
2013-04-02 14:23:00,42.3,17.9,30.06,WSW,245,13.5,14.8,37,0.00,,CLR,0.00,VWS V14.00,2013-04-02 18:23:00,
2013-04-02 14:29:00,42.3,18.6,30.06,WSW,251,11.6,18.0,38,0.00,,CLR,0.00,VWS V14.00,2013-04-02 18:29:00,
2013-04-02 14:34:00,42.9,18.4,30.06,West,265,8.9,12.6,37,0.00,,CLR,0.00,VWS V14.00,2013-04-02 18:34:00,
2013-04-02 14:39:00,42.7,17.0,30.06,WSW,253,10.6,15.3,35,0.00,,CLR,0.00,VWS V14.00,2013-04-02 18:39:00,
2013-04-02 14:44:00,42.9,16.5,30.06,SW,230,8.4,15.8,34,0.00,,CLR,0.00,VWS V14.00,2013-04-02 18:44:00,
2013-04-02 14:49:00,43.6,17.1,30.03,SSW,194,8.9,10.5,34,0.00,,CLR,0.00,VWS V14.00,2013-04-02 18:49:00,
2013-04-02 14:54:00,43.6,19.1,30.03,West,273,11.1,12.1,37,0.00,,CLR,0.00,VWS V14.00,2013-04-02 18:54:00,
2013-04-02 14:59:00,43.3,16.8,30.03,SW,224,8.9,15.8,34,0.00,,CLR,0.00,VWS V14.00,2013-04-02 18:59:00,
2013-04-02 15:04:00,43.5,17.6,30.06,West,265,8.9,15.3,35,0.00,,CLR,0.00,VWS V14.00,2013-04-02 19:04:00,
2013-04-02 15:09:00,44.0,20.0,30.06,West,270,8.9,9.9,38,0.00,,CLR,0.00,VWS V14.00,2013-04-02 19:09:00,
2013-04-02 15:14:00,43.3,16.8,30.06,NW,307,5.9,14.8,34,0.00,,CLR,0.00,VWS V14.00,2013-04-02 19:14:00,
2013-04-02 15:19:00,43.6,18.5,30.03,WNW,286,11.1,13.2,36,0.00,,CLR,0.00,VWS V14.00,2013-04-02 19:19:00,
2013-04-02 15:24:00,44.0,18.1,30.03,SW,235,9.6,10.5,35,0.00,,CLR,0.00,VWS V14.00,2013-04-02 19:24:00,
2013-04-02 15:30:00,43.6,18.5,30.03,West,263,14.0,15.3,36,0.00,,CLR,0.00,VWS V14.00,2013-04-02 19:30:00,
2013-04-02 15:35:00,43.6,17.8,30.03,SW,231,9.1,13.7,35,0.00,,CLR,0.00,VWS V14.00,2013-04-02 19:35:00,
2013-04-02 15:40:00,43.8,16.6,30.03,SSW,212,8.4,10.5,33,0.00,,CLR,0.00,VWS V14.00,2013-04-02 19:40:00,
2013-04-02 15:45:00,43.1,15.2,30.03,WSW,241,9.6,13.2,32,0.00,,CLR,0.00,VWS V14.00,2013-04-02 19:45:00,
2013-04-02 15:50:00,43.6,16.5,30.03,West,271,13.5,15.8,33,0.00,,CLR,0.00,VWS V14.00,2013-04-02 19:50:00,
2013-04-02 15:55:00,43.8,16.6,30.03,West,260,11.6,12.6,33,0.00,,CLR,0.00,VWS V14.00,2013-04-02 19:55:00,
2013-04-02 16:00:00,43.1,15.9,30.03,WNW,290,8.9,10.5,33,0.00,,CLR,0.00,VWS V14.00,2013-04-02 20:00:00,
2013-04-02 16:05:00,44.0,17.5,30.03,West,264,11.6,14.8,34,0.00,,CLR,0.00,VWS V14.00,2013-04-02 20:05:00,
2013-04-02 16:11:00,43.6,16.5,30.03,WNW,294,12.1,15.8,33,0.00,,CLR,0.00,VWS V14.00,2013-04-02 20:11:00,
2013-04-02 16:16:00,44.4,17.8,30.03,SSW,192,5.9,10.5,34,0.00,,CLR,0.00,VWS V14.00,2013-04-02 20:16:00,
2013-04-02 16:21:00,43.6,15.7,30.03,WSW,242,9.1,12.6,32,0.00,,CLR,0.00,VWS V14.00,2013-04-02 20:21:00,
2013-04-02 16:26:00,43.6,16.5,30.03,West,271,14.0,15.3,33,0.00,,CLR,0.00,VWS V14.00,2013-04-02 20:26:00,
2013-04-02 16:31:00,44.4,17.1,30.03,West,267,8.9,15.8,33,0.00,,CLR,0.00,VWS V14.00,2013-04-02 20:31:00,
2013-04-02 16:36:00,44.4,16.4,30.03,West,267,14.5,15.8,32,0.00,,CLR,0.00,VWS V14.00,2013-04-02 20:36:00,
2013-04-02 16:41:00,43.6,16.5,30.03,West,265,9.6,12.6,33,0.00,,CLR,0.00,VWS V14.00,2013-04-02 20:41:00,
2013-04-02 16:46:00,44.4,16.4,30.03,WSW,248,9.1,15.3,32,0.00,,CLR,0.00,VWS V14.00,2013-04-02 20:46:00,
2013-04-02 16:51:00,43.5,14.9,30.03,SW,227,11.6,13.7,31,0.00,,CLR,0.00,VWS V14.00,2013-04-02 20:51:00,
2013-04-02 16:56:00,44.0,16.8,30.03,WNW,286,8.4,15.3,33,0.00,,CLR,0.00,VWS V14.00,2013-04-02 20:56:00,
2013-04-02 17:02:00,43.6,16.5,30.03,SW,230,6.9,9.9,33,0.00,,CLR,0.00,VWS V14.00,2013-04-02 21:02:00,
2013-04-02 17:07:00,43.6,16.5,30.03,WNW,292,11.6,15.3,33,0.00,,CLR,0.00,VWS V14.00,2013-04-02 21:07:00,
2013-04-02 17:12:00,43.6,15.0,30.03,WSW,258,8.9,14.8,31,0.00,,CLR,0.00,VWS V14.00,2013-04-02 21:12:00,
2013-04-02 17:17:00,43.5,15.6,30.03,West,263,17.0,20.1,32,0.00,,CLR,0.00,VWS V14.00,2013-04-02 21:17:00,
2013-04-02 17:22:00,42.9,15.8,30.03,West,259,17.0,20.4,33,0.00,,CLR,0.00,VWS V14.00,2013-04-02 21:22:00,
2013-04-02 17:27:00,42.3,14.6,30.03,West,263,17.0,18.5,32,0.00,,CLR,0.00,VWS V14.00,2013-04-02 21:27:00,
2013-04-02 17:32:00,42.9,15.1,30.03,West,261,10.1,14.2,32,0.00,,CLR,0.00,VWS V14.00,2013-04-02 21:32:00,
2013-04-02 17:37:00,42.5,15.5,30.03,WNW,295,11.1,15.8,33,0.00,,CLR,0.00,VWS V14.00,2013-04-02 21:37:00,
2013-04-02 17:43:00,42.5,14.8,30.03,SW,219,9.1,14.8,32,0.00,,CLR,0.00,VWS V14.00,2013-04-02 21:43:00,
2013-04-02 17:48:00,42.0,15.0,30.03,WNW,288,12.1,14.8,33,0.00,,CLR,0.00,VWS V14.00,2013-04-02 21:48:00,
2013-04-02 17:53:00,42.0,14.3,30.03,WSW,253,9.1,13.2,32,0.00,,CLR,0.00,VWS V14.00,2013-04-02 21:53:00,
2013-04-02 17:58:00,42.2,14.4,30.03,West,268,9.1,11.5,32,0.00,,CLR,0.00,VWS V14.00,2013-04-02 21:58:00,
2013-04-02 18:03:00,42.5,14.8,30.03,West,274,11.6,12.6,32,0.00,,CLR,0.00,VWS V14.00,2013-04-02 22:03:00,
2013-04-02 18:08:00,41.8,14.1,30.03,WSW,252,11.1,19.6,32,0.00,,CLR,0.00,VWS V14.00,2013-04-02 22:08:00,
2013-04-02 18:13:00,41.4,13.8,30.03,SW,233,9.1,12.1,32,0.00,,CLR,0.00,VWS V14.00,2013-04-02 22:13:00,
2013-04-02 18:18:00,41.0,13.5,30.06,WNW,284,16.5,18.0,32,0.00,,CLR,0.00,VWS V14.00,2013-04-02 22:18:00,
2013-04-02 18:23:00,40.9,14.0,30.06,West,266,5.9,9.9,33,0.00,,CLR,0.00,VWS V14.00,2013-04-02 22:23:00,
2013-04-02 18:28:00,40.5,13.7,30.06,WNW,290,11.6,15.3,33,0.00,,CLR,0.00,VWS V14.00,2013-04-02 22:28:00,
2013-04-02 18:33:00,39.9,13.2,30.06,WNW,297,14.0,16.9,33,0.00,,CLR,0.00,VWS V14.00,2013-04-02 22:33:00,
2013-04-02 18:39:00,39.9,13.2,30.06,West,268,9.1,10.5,33,0.00,,CLR,0.00,VWS V14.00,2013-04-02 22:39:00,
2013-04-02 18:44:00,40.3,13.5,30.06,WSW,248,11.1,15.8,33,0.00,,CLR,0.00,VWS V14.00,2013-04-02 22:44:00,
2013-04-02 18:49:00,39.6,12.1,30.06,WNW,297,10.6,15.3,32,0.00,,CLR,0.00,VWS V14.00,2013-04-02 22:49:00,
2013-04-02 18:54:00,39.9,13.2,30.06,West,268,8.9,9.9,33,0.00,,CLR,0.00,VWS V14.00,2013-04-02 22:54:00,
2013-04-02 18:59:00,39.6,12.9,30.06,SW,230,11.6,14.2,33,0.00,,CLR,0.00,VWS V14.00,2013-04-02 22:59:00,
2013-04-02 19:04:00,39.4,12.0,30.06,WSW,251,14.0,15.3,32,0.00,,CLR,0.00,VWS V14.00,2013-04-02 23:04:00,
2013-04-02 19:09:00,39.0,11.7,30.06,West,272,11.1,15.3,32,0.00,,CLR,0.00,VWS V14.00,2013-04-02 23:09:00,
2013-04-02 19:14:00,38.6,12.0,30.06,West,265,12.1,15.8,33,0.00,,CLR,0.00,VWS V14.00,2013-04-02 23:14:00,
2013-04-02 19:19:00,38.3,11.7,30.06,West,278,14.5,15.8,33,0.00,,CLR,0.00,VWS V14.00,2013-04-02 23:19:00,
2013-04-02 19:24:00,37.9,11.4,30.06,WNW,303,10.1,12.1,33,0.00,,CLR,0.00,VWS V14.00,2013-04-02 23:24:00,
2013-04-02 19:29:00,37.3,10.9,30.06,West,272,6.4,9.7,33,0.00,,CLR,0.00,VWS V14.00,2013-04-02 23:29:00,
2013-04-02 19:34:00,36.6,10.9,30.06,WSW,256,4.4,4.8,34,0.00,,CLR,0.00,VWS V14.00,2013-04-02 23:34:00,
2013-04-02 19:39:00,36.6,10.9,30.06,WSW,246,6.9,7.5,34,0.00,,CLR,0.00,VWS V14.00,2013-04-02 23:39:00,
2013-04-02 19:44:00,37.0,10.6,30.06,West,265,6.9,9.1,33,0.00,,CLR,0.00,VWS V14.00,2013-04-02 23:44:00,
2013-04-02 19:50:00,36.6,10.9,30.06,WSW,258,10.1,11.0,34,0.00,,CLR,0.00,VWS V14.00,2013-04-02 23:50:00,
2013-04-02 19:55:00,36.6,10.9,30.06,WSW,245,8.9,9.7,34,0.00,,CLR,0.00,VWS V14.00,2013-04-02 23:55:00,
2013-04-02 20:00:00,36.2,10.6,30.06,West,265,3.9,4.8,34,0.00,,CLR,0.00,VWS V14.00,2013-04-03 00:00:00,
2013-04-02 20:05:00,35.7,10.1,30.06,West,268,4.4,4.8,34,0.00,,CLR,0.00,VWS V14.00,2013-04-03 00:05:00,
2013-04-02 20:10:00,35.7,10.1,30.06,West,260,4.4,4.8,34,0.00,,CLR,0.00,VWS V14.00,2013-04-03 00:10:00,
2013-04-02 20:15:00,35.7,10.1,30.06,WSW,257,3.4,4.3,34,0.00,,CLR,0.00,VWS V14.00,2013-04-03 00:15:00,
2013-04-02 20:20:00,35.5,10.6,30.06,WSW,251,2.5,3.2,35,0.00,,CLR,0.00,VWS V14.00,2013-04-03 00:20:00,
2013-04-02 20:25:00,35.7,10.1,30.06,WSW,253,3.9,4.3,34,0.00,,CLR,0.00,VWS V14.00,2013-04-03 00:25:00,
2013-04-02 20:30:00,35.5,10.6,30.06,WSW,244,3.0,4.3,35,0.00,,CLR,0.00,VWS V14.00,2013-04-03 00:30:00,
2013-04-02 20:35:00,35.1,10.2,30.06,WNW,302,3.4,4.8,35,0.00,,CLR,0.00,VWS V14.00,2013-04-03 00:35:00,
2013-04-02 20:41:00,34.7,9.9,30.06,WNW,294,2.5,2.7,35,0.00,,CLR,0.00,VWS V14.00,2013-04-03 00:41:00,
2013-04-02 20:46:00,34.7,9.9,30.06,WNW,288,0.0,3.2,35,0.00,,CLR,0.00,VWS V14.00,2013-04-03 00:46:00,
2013-04-02 20:51:00,34.7,10.5,30.09,West,263,3.9,4.3,36,0.00,,CLR,0.00,VWS V14.00,2013-04-03 00:51:00,
2013-04-02 20:56:00,34.9,10.1,30.09,WNW,295,0.0,0.0,35,0.00,,CLR,0.00,VWS V14.00,2013-04-03 00:56:00,
2013-04-02 21:01:00,34.7,9.9,30.09,WNW,301,3.4,3.8,35,0.00,,CLR,0.00,VWS V14.00,2013-04-03 01:01:00,
2013-04-02 21:06:00,34.7,9.9,30.09,NW,307,3.0,3.2,35,0.00,,CLR,0.00,VWS V14.00,2013-04-03 01:06:00,
2013-04-02 21:11:00,34.9,10.1,30.09,SW,234,2.5,3.8,35,0.00,,CLR,0.00,VWS V14.00,2013-04-03 01:11:00,
2013-04-02 21:16:00,34.7,9.9,30.09,SW,234,2.5,2.7,35,0.00,,CLR,0.00,VWS V14.00,2013-04-03 01:16:00,
2013-04-02 21:21:00,34.6,9.7,30.09,West,274,3.4,4.8,35,0.00,,CLR,0.00,VWS V14.00,2013-04-03 01:21:00,
2013-04-02 21:26:00,34.4,10.2,30.09,West,273,2.5,4.3,36,0.00,,CLR,0.00,VWS V14.00,2013-04-03 01:26:00,
2013-04-02 21:31:00,34.2,10.0,30.09,West,281,3.4,4.3,36,0.00,,CLR,0.00,VWS V14.00,2013-04-03 01:31:00,
2013-04-02 21:36:00,34.2,10.0,30.09,WNW,288,0.0,0.0,36,0.00,,CLR,0.00,VWS V14.00,2013-04-03 01:36:00,
2013-04-02 21:42:00,33.8,9.7,30.09,NW,312,3.4,6.4,36,0.00,,CLR,0.00,VWS V14.00,2013-04-03 01:42:00,
2013-04-02 21:47:00,33.8,10.3,30.09,NW,307,3.0,4.8,37,0.00,,CLR,0.00,VWS V14.00,2013-04-03 01:47:00,
2013-04-02 21:52:00,33.8,10.3,30.09,NW,307,2.5,2.7,37,0.00,,CLR,0.00,VWS V14.00,2013-04-03 01:52:00,
2013-04-02 21:57:00,34.0,10.5,30.09,WSW,258,3.0,4.3,37,0.00,,CLR,0.00,VWS V14.00,2013-04-03 01:57:00,
2013-04-02 22:02:00,33.8,10.3,30.09,WNW,291,3.0,3.2,37,0.00,,CLR,0.00,VWS V14.00,2013-04-03 02:02:00,
2013-04-02 22:07:00,33.8,10.3,30.09,WNW,283,0.0,2.7,37,0.00,,CLR,0.00,VWS V14.00,2013-04-03 02:07:00,
2013-04-02 22:12:00,33.6,10.7,30.09,WNW,294,2.5,3.8,38,0.00,,CLR,0.00,VWS V14.00,2013-04-03 02:12:00,
2013-04-02 22:18:00,33.1,10.2,30.09,NW,313,0.0,0.0,38,0.00,,CLR,0.00,VWS V14.00,2013-04-03 02:18:00,
2013-04-02 22:23:00,32.9,10.7,30.09,NW,313,2.5,2.7,39,0.00,,CLR,0.00,VWS V14.00,2013-04-03 02:23:00,
2013-04-02 22:28:00,32.5,10.9,30.09,NW,313,0.0,0.0,40,0.00,,CLR,0.00,VWS V14.00,2013-04-03 02:28:00,
2013-04-02 22:33:00,32.5,10.9,30.09,NNW,333,4.4,6.4,40,0.00,,CLR,0.00,VWS V14.00,2013-04-03 02:33:00,
2013-04-02 22:38:00,32.2,10.6,30.09,NNW,335,0.0,0.0,40,0.00,,CLR,0.00,VWS V14.00,2013-04-03 02:38:00,
2013-04-02 22:43:00,32.3,10.7,30.09,NNW,335,2.5,2.7,40,0.00,,CLR,0.00,VWS V14.00,2013-04-03 02:43:00,
2013-04-02 22:48:00,32.0,10.4,30.09,NNW,327,0.0,3.8,40,0.00,,CLR,0.00,VWS V14.00,2013-04-03 02:48:00,
2013-04-02 22:53:00,31.8,10.2,30.09,NW,321,0.0,2.7,40,0.00,,CLR,0.00,VWS V14.00,2013-04-03 02:53:00,
2013-04-02 22:58:00,31.4,9.9,30.09,NW,321,0.0,2.7,40,0.00,,CLR,0.00,VWS V14.00,2013-04-03 02:58:00,
2013-04-02 23:04:00,31.4,10.4,30.09,NW,321,0.0,0.0,41,0.00,,CLR,0.00,VWS V14.00,2013-04-03 03:04:00,
2013-04-02 23:09:00,31.0,10.1,30.09,NW,321,0.0,0.0,41,0.00,,CLR,0.00,VWS V14.00,2013-04-03 03:09:00,
2013-04-02 23:14:00,30.9,9.9,30.09,NW,321,0.0,0.0,41,0.00,,CLR,0.00,VWS V14.00,2013-04-03 03:14:00,
2013-04-02 23:19:00,30.9,9.9,30.09,NW,321,0.0,0.0,41,0.00,,CLR,0.00,VWS V14.00,2013-04-03 03:19:00,
2013-04-02 23:24:00,30.5,9.6,30.09,NW,321,0.0,0.0,41,0.00,,CLR,0.00,VWS V14.00,2013-04-03 03:24:00,
2013-04-02 23:29:00,30.5,9.6,30.09,NW,321,0.0,2.7,41,0.00,,CLR,0.00,VWS V14.00,2013-04-03 03:29:00,
2013-04-02 23:35:00,30.3,9.4,30.09,NW,321,0.0,0.0,41,0.00,,CLR,0.00,VWS V14.00,2013-04-03 03:35:00,
2013-04-02 23:40:00,30.3,9.4,30.09,NW,321,0.0,0.0,41,0.00,,CLR,0.00,VWS V14.00,2013-04-03 03:40:00,
2013-04-02 23:45:00,30.5,9.6,30.09,NW,321,0.0,2.7,41,0.00,,CLR,0.00,VWS V14.00,2013-04-03 03:45:00,
2013-04-02 23:50:00,29.7,9.5,30.09,NW,321,2.5,3.2,42,0.00,,CLR,0.00,VWS V14.00,2013-04-03 03:50:00,
2013-04-02 23:55:00,29.7,9.5,30.09,NW,322,0.0,3.8,42,0.00,,CLR,0.00,VWS V14.00,2013-04-03 03:55:00,